User: anonymous   Login
Location: Unspecified
(0.0000°N, 0.0000°E)
Time: 22:10:07
(UTC+00:00)
Language:

COSMOS 2409 - Orbit

View from above orbital plane
View from above orbital plane
View from above satellite
View from above satellite

Ground track
Ground track

The orbit data is extracted from the following two-line orbital elements,

1 28380U 04028A   18265.59130382 +.00000042 +00000-0 +27875-4 0  9997
2 28380 082.9642 006.0412 0038108 229.6690 130.1134 13.76057034711593
Epoch (UTC): 22 September 2018 14:11:28
Eccentricity: 0.0038108
inclination: 82.9642°
perigee height: 950 km
apogee height: 1006 km
right ascension of ascending node: 6.0412°
argument of perigee: 229.6690°
revolutions per day: 13.76057034
mean anomaly at epoch: 130.1134°
orbit number at epoch: 71159

The dashed part of the orbit path shows where the satellite is in the earth's shadow,  

DLR